Location: Maiden
(35.5760°N, 81.2120°W)
Time: 01:20:28
(UTC-04:00)

ERS-1 Rocket - Pass Details

Date: 14 June 2018
Orbit: 752 x 759 km, 98.6° (Epoch: 21 August)

Event Time Altitude Azimuth Distance (km) Brightness Sun altitude
Exits shadow 22:06:56 23° 128° (SE) 1,582 4.0 -14.7°
Maximum altitude 22:09:38 41° 72° (ENE) 1,083 3.6 -15.1°
Drops below altitude 10° 22:14:20 10° 2° (N) 2,291 6.1 -15.8°
Sets 22:16:45 0° 356° (N) 3,221 7.0 -16.1°
